Time,TemperatureF,DewpointF,PressureIn,WindDirection,WindDirectionDegrees,WindSpeedMPH,WindSpeedGustMPH,Humidity,HourlyPrecipIn,Conditions,Clouds,dailyrainin,SoftwareType,DateUTC
2013-03-05 00:00:00,34.2,21.7,30.00,NNW,348,0.0,4.0,60,0.00,,,0.00,Wunderground v.1.15,2013-03-05 05:00:00,
2013-03-05 00:05:00,34.0,21.6,30.00,NNW,348,0.0,4.0,60,0.00,,,0.00,Wunderground v.1.15,2013-03-05 05:05:00,
2013-03-05 00:10:00,33.9,21.9,30.01,West,278,0.0,3.0,61,0.00,,,0.00,Wunderground v.1.15,2013-03-05 05:10:00,
2013-03-05 00:15:00,33.7,21.7,30.01,West,278,0.0,3.0,61,0.00,,,0.00,Wunderground v.1.15,2013-03-05 05:15:00,
2013-03-05 00:20:00,33.7,21.7,30.01,West,278,1.0,1.0,61,0.00,,,0.00,Wunderground v.1.15,2013-03-05 05:20:00,
2013-03-05 00:25:00,33.6,22.0,30.02,West,278,0.0,1.0,62,0.00,,,0.00,Wunderground v.1.15,2013-03-05 05:25:00,
2013-03-05 00:30:00,33.5,22.2,30.02,West,278,0.0,1.0,63,0.00,,,0.00,Wunderground v.1.15,2013-03-05 05:30:00,
2013-03-05 00:35:00,33.4,22.1,30.02,West,278,0.0,1.0,63,0.00,,,0.00,Wunderground v.1.15,2013-03-05 05:35:00,
2013-03-05 00:40:00,33.2,22.0,30.02,West,278,0.0,0.0,63,0.00,,,0.00,Wunderground v.1.15,2013-03-05 05:40:00,
2013-03-05 00:45:00,33.0,21.4,30.02,West,278,0.0,0.0,62,0.00,,,0.00,Wunderground v.1.15,2013-03-05 05:45:00,
2013-03-05 00:50:00,32.8,21.6,30.03,West,278,0.0,0.0,63,0.00,,,0.00,Wunderground v.1.15,2013-03-05 05:50:00,
2013-03-05 00:55:00,32.6,21.4,30.02,West,278,0.0,0.0,63,0.00,,,0.00,Wunderground v.1.15,2013-03-05 05:55:00,
2013-03-05 01:00:00,32.4,21.6,30.02,West,278,0.0,0.0,64,0.00,,,0.00,Wunderground v.1.15,2013-03-05 06:00:00,
2013-03-05 01:05:00,32.3,21.5,30.03,West,278,0.0,1.0,64,0.00,,,0.00,Wunderground v.1.15,2013-03-05 06:05:00,
2013-03-05 01:10:00,32.2,21.7,30.03,West,278,0.0,1.0,65,0.00,,,0.00,Wunderground v.1.15,2013-03-05 06:10:00,
2013-03-05 01:15:00,32.0,21.9,30.03,West,278,0.0,1.0,66,0.00,,,0.00,Wunderground v.1.15,2013-03-05 06:15:00,
2013-03-05 01:25:00,31.7,21.6,30.03,West,278,0.0,0.0,66,0.00,,,0.00,Wunderground v.1.15,2013-03-05 06:25:00,
2013-03-05 01:30:00,31.4,21.3,30.03,West,278,0.0,0.0,66,0.00,,,0.00,Wunderground v.1.15,2013-03-05 06:30:00,
2013-03-05 01:35:00,31.2,21.2,30.03,West,278,0.0,0.0,66,0.00,,,0.00,Wunderground v.1.15,2013-03-05 06:35:00,
2013-03-05 01:40:00,31.1,21.1,30.03,West,278,0.0,0.0,66,0.00,,,0.00,Wunderground v.1.15,2013-03-05 06:40:00,
2013-03-05 01:45:00,30.8,21.1,30.03,West,278,0.0,0.0,67,0.00,,,0.00,Wunderground v.1.15,2013-03-05 06:45:00,
2013-03-05 01:50:00,30.7,21.0,30.03,West,278,0.0,0.0,67,0.00,,,0.00,Wunderground v.1.15,2013-03-05 06:50:00,
2013-03-05 01:55:00,30.5,21.2,30.03,West,278,0.0,0.0,68,0.00,,,0.00,Wunderground v.1.15,2013-03-05 06:55:00,
2013-03-05 02:05:00,30.3,21.3,30.03,West,278,0.0,0.0,69,0.00,,,0.00,Wunderground v.1.15,2013-03-05 07:05:00,
2013-03-05 02:10:00,30.2,21.6,30.03,WNW,302,0.0,2.0,70,0.00,,,0.00,Wunderground v.1.15,2013-03-05 07:10:00,
2013-03-05 02:15:00,30.2,21.6,30.03,WNW,303,0.0,2.0,70,0.00,,,0.00,Wunderground v.1.15,2013-03-05 07:15:00,
2013-03-05 02:20:00,30.2,21.6,30.03,WNW,303,0.0,0.0,70,0.00,,,0.00,Wunderground v.1.15,2013-03-05 07:20:00,
2013-03-05 02:25:00,30.2,21.6,30.03,WNW,303,0.0,0.0,70,0.00,,,0.00,Wunderground v.1.15,2013-03-05 07:25:00,
2013-03-05 02:30:00,30.3,21.7,30.03,WNW,303,0.0,0.0,70,0.00,,,0.00,Wunderground v.1.15,2013-03-05 07:30:00,
2013-03-05 02:40:00,30.5,21.9,30.02,NW,309,0.0,0.0,70,0.00,,,0.00,Wunderground v.1.15,2013-03-05 07:40:00,
2013-03-05 02:50:00,30.6,22.0,30.02,NW,309,0.0,0.0,70,0.00,,,0.00,Wunderground v.1.15,2013-03-05 07:50:00,
2013-03-05 02:55:00,30.6,22.0,30.02,NW,309,0.0,0.0,70,0.00,,,0.00,Wunderground v.1.15,2013-03-05 07:55:00,
2013-03-05 03:00:00,30.6,22.0,30.02,NW,309,0.0,0.0,70,0.00,,,0.00,Wunderground v.1.15,2013-03-05 08:00:00,
2013-03-05 03:05:00,30.6,22.0,30.02,NW,309,0.0,0.0,70,0.00,,,0.00,Wunderground v.1.15,2013-03-05 08:05:00,
2013-03-05 03:10:00,30.5,21.9,30.03,NW,309,0.0,0.0,70,0.00,,,0.00,Wunderground v.1.15,2013-03-05 08:10:00,
2013-03-05 03:15:00,30.4,22.1,30.03,NW,309,0.0,1.0,71,0.00,,,0.00,Wunderground v.1.15,2013-03-05 08:15:00,
2013-03-05 03:25:00,30.1,22.2,30.03,NW,309,0.0,0.0,72,0.00,,,0.00,Wunderground v.1.15,2013-03-05 08:25:00,
2013-03-05 03:30:00,29.9,22.0,30.03,NW,309,0.0,0.0,72,0.00,,,0.00,Wunderground v.1.15,2013-03-05 08:30:00,
2013-03-05 03:35:00,29.8,21.9,30.03,NW,309,0.0,0.0,72,0.00,,,0.00,Wunderground v.1.15,2013-03-05 08:35:00,
2013-03-05 03:40:00,29.6,21.7,30.03,NW,309,0.0,0.0,72,0.00,,,0.00,Wunderground v.1.15,2013-03-05 08:40:00,
2013-03-05 03:50:00,29.3,21.4,30.03,NW,309,0.0,0.0,72,0.00,,,0.00,Wunderground v.1.15,2013-03-05 08:50:00,
2013-03-05 04:00:00,29.1,21.2,30.03,NW,309,0.0,0.0,72,0.00,,,0.00,Wunderground v.1.15,2013-03-05 09:00:00,
2013-03-05 04:05:00,28.9,21.0,30.04,NW,309,0.0,0.0,72,0.00,,,0.00,Wunderground v.1.15,2013-03-05 09:05:00,
2013-03-05 04:10:00,28.8,20.9,30.04,NW,309,0.0,0.0,72,0.00,,,0.00,Wunderground v.1.15,2013-03-05 09:10:00,
2013-03-05 04:15:00,28.7,21.1,30.04,NW,309,0.0,0.0,73,0.00,,,0.00,Wunderground v.1.15,2013-03-05 09:15:00,
2013-03-05 04:25:00,28.7,21.1,30.05,NW,309,0.0,0.0,73,0.00,,,0.00,Wunderground v.1.15,2013-03-05 09:25:00,
2013-03-05 04:30:00,28.6,21.7,30.05,NW,309,0.0,0.0,75,0.00,,,0.00,Wunderground v.1.15,2013-03-05 09:30:00,
2013-03-05 04:35:00,28.6,21.7,30.05,NW,309,0.0,0.0,75,0.00,,,0.00,Wunderground v.1.15,2013-03-05 09:35:00,
2013-03-05 04:40:00,28.5,21.9,30.05,NW,309,0.0,0.0,76,0.00,,,0.00,Wunderground v.1.15,2013-03-05 09:40:00,
2013-03-05 04:45:00,28.5,21.9,30.05,NW,309,0.0,0.0,76,0.00,,,0.00,Wunderground v.1.15,2013-03-05 09:45:00,
2013-03-05 04:50:00,28.4,22.1,30.05,NW,309,0.0,0.0,77,0.00,,,0.00,Wunderground v.1.15,2013-03-05 09:50:00,
2013-03-05 05:00:00,28.4,22.1,30.05,NW,309,0.0,0.0,77,0.00,,,0.00,Wunderground v.1.15,2013-03-05 10:00:00,
2013-03-05 05:10:00,28.4,22.1,30.05,NW,309,0.0,0.0,77,0.00,,,0.00,Wunderground v.1.15,2013-03-05 10:10:00,
2013-03-05 05:15:00,28.4,21.8,30.06,NW,309,0.0,0.0,76,0.00,,,0.00,Wunderground v.1.15,2013-03-05 10:15:00,
2013-03-05 05:20:00,28.3,21.7,30.06,NW,309,0.0,0.0,76,0.00,,,0.00,Wunderground v.1.15,2013-03-05 10:20:00,
2013-03-05 05:25:00,28.3,21.7,30.06,NW,309,0.0,0.0,76,0.00,,,0.00,Wunderground v.1.15,2013-03-05 10:25:00,
2013-03-05 05:35:00,28.2,21.9,30.05,NW,309,0.0,0.0,77,0.00,,,0.00,Wunderground v.1.15,2013-03-05 10:35:00,
2013-03-05 05:40:00,28.2,21.9,30.05,NW,309,0.0,0.0,77,0.00,,,0.00,Wunderground v.1.15,2013-03-05 10:40:00,
2013-03-05 05:45:00,28.2,21.9,30.05,NW,309,0.0,0.0,77,0.00,,,0.00,Wunderground v.1.15,2013-03-05 10:45:00,
2013-03-05 05:50:00,28.2,21.6,30.05,NW,309,0.0,0.0,76,0.00,,,0.00,Wunderground v.1.15,2013-03-05 10:50:00,
2013-03-05 05:55:00,28.2,21.9,30.05,NW,309,0.0,0.0,77,0.00,,,0.00,Wunderground v.1.15,2013-03-05 10:55:00,
2013-03-05 06:05:00,28.1,21.8,30.06,NW,309,0.0,2.0,77,0.00,,,0.00,Wunderground v.1.15,2013-03-05 11:05:00,
2013-03-05 06:10:00,28.1,22.1,30.06,NW,309,0.0,0.0,78,0.00,,,0.00,Wunderground v.1.15,2013-03-05 11:10:00,
2013-03-05 06:15:00,28.1,22.1,30.06,NW,309,0.0,0.0,78,0.00,,,0.00,Wunderground v.1.15,2013-03-05 11:15:00,
2013-03-05 06:20:00,28.3,22.6,30.05,NNW,338,1.0,1.0,79,0.00,,,0.00,Wunderground v.1.15,2013-03-05 11:20:00,
2013-03-05 06:25:00,28.7,22.7,30.05,NNW,344,1.0,1.0,78,0.00,,,0.00,Wunderground v.1.15,2013-03-05 11:25:00,
2013-03-05 06:30:00,29.0,22.7,30.05,NNW,344,1.0,1.0,77,0.00,,,0.00,Wunderground v.1.15,2013-03-05 11:30:00,
2013-03-05 06:35:00,29.2,22.9,30.05,NNW,344,0.0,1.0,77,0.00,,,0.00,Wunderground v.1.15,2013-03-05 11:35:00,
2013-03-05 06:45:00,29.7,23.1,30.05,NNW,344,0.0,1.0,76,0.00,,,0.00,Wunderground v.1.15,2013-03-05 11:45:00,
2013-03-05 06:50:00,29.8,23.2,30.06,NNW,344,0.0,0.0,76,0.00,,,0.00,Wunderground v.1.15,2013-03-05 11:50:00,
2013-03-05 06:55:00,29.9,23.3,30.06,NNW,342,0.0,4.0,76,0.00,,,0.00,Wunderground v.1.15,2013-03-05 11:55:00,
2013-03-05 07:00:00,30.1,23.4,30.06,NNW,330,1.0,1.0,76,0.00,,,0.00,Wunderground v.1.15,2013-03-05 12:00:00,
2013-03-05 07:05:00,30.4,23.4,30.06,NNW,331,1.0,2.0,75,0.00,,,0.00,Wunderground v.1.15,2013-03-05 12:05:00,
2013-03-05 07:10:00,30.7,23.4,30.06,North,359,1.0,2.0,74,0.00,,,0.00,Wunderground v.1.15,2013-03-05 12:10:00,
2013-03-05 07:20:00,31.7,23.4,30.06,NNW,338,2.0,2.0,71,0.00,,,0.00,Wunderground v.1.15,2013-03-05 12:20:00,
2013-03-05 07:25:00,32.2,23.2,30.06,NNW,337,2.0,2.0,69,0.00,,,0.00,Wunderground v.1.15,2013-03-05 12:25:00,
2013-03-05 07:30:00,32.6,23.2,30.06,NW,322,2.0,2.0,68,0.00,,,0.00,Wunderground v.1.15,2013-03-05 12:30:00,
2013-03-05 07:35:00,33.0,23.6,30.06,NNW,327,2.0,2.0,68,0.00,,,0.00,Wunderground v.1.15,2013-03-05 12:35:00,
2013-03-05 07:40:00,33.3,23.5,30.06,North,356,1.0,1.0,67,0.00,,,0.00,Wunderground v.1.15,2013-03-05 12:40:00,
2013-03-05 07:45:00,33.5,23.0,30.07,NW,307,2.0,2.0,65,0.00,,,0.00,Wunderground v.1.15,2013-03-05 12:45:00,
2013-03-05 07:50:00,33.8,23.3,30.07,NW,307,2.0,2.0,65,0.00,,,0.00,Wunderground v.1.15,2013-03-05 12:50:00,
2013-03-05 07:55:00,34.1,23.2,30.07,North,8,1.0,2.0,64,0.00,,,0.00,Wunderground v.1.15,2013-03-05 12:55:00,
2013-03-05 08:05:00,34.5,23.2,30.07,NW,322,2.0,2.0,63,0.00,,,0.00,Wunderground v.1.15,2013-03-05 13:05:00,
2013-03-05 08:10:00,34.7,22.6,30.08,NW,308,2.0,2.0,61,0.00,,,0.00,Wunderground v.1.15,2013-03-05 13:10:00,
2013-03-05 08:15:00,34.8,22.7,30.07,NW,319,2.0,2.0,61,0.00,,,0.00,Wunderground v.1.15,2013-03-05 13:15:00,
2013-03-05 08:20:00,35.0,22.9,30.07,NW,320,2.0,4.0,61,0.00,,,0.00,Wunderground v.1.15,2013-03-05 13:20:00,
2013-03-05 08:30:00,35.4,22.9,30.07,North,357,3.0,5.0,60,0.00,,,0.00,Wunderground v.1.15,2013-03-05 13:30:00,
2013-03-05 08:35:00,35.5,22.6,30.07,NNW,334,3.0,5.0,59,0.00,,,0.00,Wunderground v.1.15,2013-03-05 13:35:00,
2013-03-05 08:40:00,35.9,24.5,30.07,NE,54,3.0,3.0,63,0.00,,,0.00,Wunderground v.1.15,2013-03-05 13:40:00,
2013-03-05 08:45:00,36.3,25.3,30.07,NE,45,1.0,3.0,64,0.00,,,0.00,Wunderground v.1.15,2013-03-05 13:45:00,
2013-03-05 08:50:00,36.5,25.5,30.07,NE,45,0.0,1.0,64,0.00,,,0.00,Wunderground v.1.15,2013-03-05 13:50:00,
2013-03-05 08:55:00,36.7,25.7,30.07,NE,53,1.0,2.0,64,0.00,,,0.00,Wunderground v.1.15,2013-03-05 13:55:00,
2013-03-05 09:05:00,36.9,25.9,30.07,ENE,74,2.0,2.0,64,0.00,,,0.00,Wunderground v.1.15,2013-03-05 14:05:00,
2013-03-05 09:10:00,37.0,25.6,30.07,ENE,64,2.0,2.0,63,0.00,,,0.00,Wunderground v.1.15,2013-03-05 14:10:00,
2013-03-05 09:15:00,37.2,25.4,30.07,ENE,63,2.0,2.0,62,0.00,,,0.00,Wunderground v.1.15,2013-03-05 14:15:00,
2013-03-05 09:20:00,37.3,25.5,30.07,NNE,13,2.0,2.0,62,0.00,,,0.00,Wunderground v.1.15,2013-03-05 14:20:00,
2013-03-05 09:25:00,37.4,25.6,30.07,NE,55,2.0,2.0,62,0.00,,,0.00,Wunderground v.1.15,2013-03-05 14:25:00,
2013-03-05 09:35:00,37.7,25.5,30.07,ENE,64,2.0,2.0,61,0.00,,,0.00,Wunderground v.1.15,2013-03-05 14:35:00,
2013-03-05 09:40:00,37.7,25.1,30.07,ENE,74,3.0,4.0,60,0.00,,,0.00,Wunderground v.1.15,2013-03-05 14:40:00,
2013-03-05 09:45:00,37.5,25.3,30.07,ENE,59,3.0,5.0,61,0.00,,,0.00,Wunderground v.1.15,2013-03-05 14:45:00,
2013-03-05 09:50:00,37.4,25.2,30.07,ENE,64,3.0,3.0,61,0.00,,,0.00,Wunderground v.1.15,2013-03-05 14:50:00,
2013-03-05 09:55:00,37.4,25.2,30.07,ENE,76,3.0,3.0,61,0.00,,,0.00,Wunderground v.1.15,2013-03-05 14:55:00,
2013-03-05 10:00:00,37.3,24.7,30.07,ENE,67,3.0,3.0,60,0.00,,,0.00,Wunderground v.1.15,2013-03-05 15:00:00,
2013-03-05 10:10:00,37.5,25.7,30.06,ENE,70,3.0,4.0,62,0.00,,,0.00,Wunderground v.1.15,2013-03-05 15:10:00,
2013-03-05 10:15:00,37.6,25.7,30.06,East,88,3.0,5.0,62,0.00,,,0.00,Wunderground v.1.15,2013-03-05 15:15:00,
2013-03-05 10:20:00,37.8,25.5,30.06,East,97,4.0,4.0,61,0.00,,,0.00,Wunderground v.1.15,2013-03-05 15:20:00,
2013-03-05 10:25:00,37.7,25.8,30.06,NE,48,4.0,4.0,62,0.00,,,0.00,Wunderground v.1.15,2013-03-05 15:25:00,
2013-03-05 10:30:00,37.4,26.3,30.06,NE,52,5.0,7.0,64,0.00,,,0.00,Wunderground v.1.15,2013-03-05 15:30:00,
2013-03-05 10:35:00,37.1,25.7,30.05,ENE,63,5.0,7.0,63,0.00,,,0.00,Wunderground v.1.15,2013-03-05 15:35:00,
2013-03-05 10:40:00,37.0,25.9,30.05,ENE,63,5.0,5.0,64,0.00,,,0.00,Wunderground v.1.15,2013-03-05 15:40:00,
2013-03-05 10:50:00,37.1,26.4,30.05,East,86,5.0,5.0,65,0.00,,,0.00,Wunderground v.1.15,2013-03-05 15:50:00,
2013-03-05 10:55:00,37.1,26.0,30.05,ENE,60,5.0,5.0,64,0.00,,,0.00,Wunderground v.1.15,2013-03-05 15:55:00,
2013-03-05 11:00:00,37.1,26.0,30.04,ENE,72,5.0,5.0,64,0.00,,,0.00,Wunderground v.1.15,2013-03-05 16:00:00,
2013-03-05 11:05:00,36.8,25.8,30.04,ENE,64,5.0,6.0,64,0.00,,,0.00,Wunderground v.1.15,2013-03-05 16:05:00,
2013-03-05 11:10:00,36.6,25.9,30.03,ENE,76,5.0,5.0,65,0.00,,,0.00,Wunderground v.1.15,2013-03-05 16:10:00,
2013-03-05 11:15:00,36.7,26.0,30.03,East,82,5.0,7.0,65,0.00,,,0.00,Wunderground v.1.15,2013-03-05 16:15:00,
2013-03-05 11:25:00,36.6,25.6,30.03,ENE,67,6.0,7.0,64,0.00,,,0.00,Wunderground v.1.15,2013-03-05 16:25:00,
2013-03-05 11:30:00,36.6,25.9,30.03,ENE,60,6.0,6.0,65,0.00,,,0.00,Wunderground v.1.15,2013-03-05 16:30:00,
2013-03-05 11:35:00,36.9,25.5,30.03,ENE,67,5.0,6.0,63,0.00,,,0.00,Wunderground v.1.15,2013-03-05 16:35:00,
2013-03-05 11:40:00,36.9,25.5,30.03,ENE,70,5.0,5.0,63,0.00,,,0.00,Wunderground v.1.15,2013-03-05 16:40:00,
2013-03-05 11:45:00,37.4,25.9,30.04,ENE,67,4.0,5.0,63,0.00,,,0.00,Wunderground v.1.15,2013-03-05 16:45:00,
2013-03-05 11:50:00,37.6,25.7,30.04,East,90,4.0,4.0,62,0.00,,,0.00,Wunderground v.1.15,2013-03-05 16:50:00,
2013-03-05 12:00:00,39.3,26.6,30.04,ENE,66,3.0,3.0,60,0.00,,,0.00,Wunderground v.1.15,2013-03-05 17:00:00,
2013-03-05 12:05:00,39.7,25.7,30.04,ENE,70,3.0,3.0,57,0.00,,,0.00,Wunderground v.1.15,2013-03-05 17:05:00,
2013-03-05 12:10:00,40.1,26.1,30.04,East,97,3.0,3.0,57,0.00,,,0.00,Wunderground v.1.15,2013-03-05 17:10:00,
2013-03-05 12:15:00,40.5,26.4,30.03,ENE,63,3.0,3.0,57,0.00,,,0.00,Wunderground v.1.15,2013-03-05 17:15:00,
2013-03-05 12:20:00,40.8,26.3,30.03,ENE,65,3.0,5.0,56,0.00,,,0.00,Wunderground v.1.15,2013-03-05 17:20:00,
2013-03-05 12:25:00,40.5,25.1,30.02,ENE,76,3.0,5.0,54,0.00,,,0.00,Wunderground v.1.15,2013-03-05 17:25:00,
2013-03-05 12:35:00,40.2,26.6,30.02,ENE,72,4.0,4.0,58,0.00,,,0.00,Wunderground v.1.15,2013-03-05 17:35:00,
2013-03-05 12:40:00,39.8,27.0,30.01,East,79,4.0,4.0,60,0.00,,,0.00,Wunderground v.1.15,2013-03-05 17:40:00,
2013-03-05 12:45:00,39.5,27.2,30.01,East,79,4.0,4.0,61,0.00,,,0.00,Wunderground v.1.15,2013-03-05 17:45:00,
2013-03-05 12:50:00,40.2,27.8,30.01,ENE,72,4.0,4.0,61,0.00,,,0.00,Wunderground v.1.15,2013-03-05 17:50:00,
2013-03-05 12:55:00,40.6,27.8,30.01,ENE,74,3.0,4.0,60,0.00,,,0.00,Wunderground v.1.15,2013-03-05 17:55:00,
2013-03-05 13:00:00,40.5,28.1,30.00,ENE,77,4.0,4.0,61,0.00,,,0.00,Wunderground v.1.15,2013-03-05 18:00:00,
2013-03-05 13:10:00,40.7,29.1,30.00,ENE,78,3.0,3.0,63,0.00,,,0.00,Wunderground v.1.15,2013-03-05 18:10:00,
2013-03-05 13:20:00,41.7,29.6,29.99,East,100,3.0,4.0,62,0.00,,,0.00,Wunderground v.1.15,2013-03-05 18:20:00,
2013-03-05 13:25:00,42.1,29.6,29.99,East,80,2.0,4.0,61,0.00,,,0.00,Wunderground v.1.15,2013-03-05 18:25:00,
2013-03-05 13:30:00,41.5,28.6,29.99,ENE,63,3.0,3.0,60,0.00,,,0.00,Wunderground v.1.15,2013-03-05 18:30:00,
2013-03-05 13:40:00,40.8,28.4,29.99,ESE,108,3.0,3.0,61,0.00,,,0.00,Wunderground v.1.15,2013-03-05 18:40:00,
2013-03-05 13:45:00,41.2,29.9,29.99,ESE,117,3.0,3.0,64,0.00,,,0.00,Wunderground v.1.15,2013-03-05 18:45:00,
2013-03-05 13:50:00,41.6,29.9,29.98,ESE,115,3.0,4.0,63,0.00,,,0.00,Wunderground v.1.15,2013-03-05 18:50:00,
2013-03-05 13:55:00,41.6,29.5,29.98,SE,143,3.0,4.0,62,0.00,,,0.00,Wunderground v.1.15,2013-03-05 18:55:00,
2013-03-05 14:00:00,41.7,29.6,29.98,ESE,102,3.0,5.0,62,0.00,,,0.00,Wunderground v.1.15,2013-03-05 19:00:00,
2013-03-05 14:05:00,41.8,28.9,29.98,ESE,117,3.0,5.0,60,0.00,,,0.00,Wunderground v.1.15,2013-03-05 19:05:00,
2013-03-05 14:15:00,42.0,29.9,29.98,ESE,122,3.0,4.0,62,0.00,,,0.00,Wunderground v.1.15,2013-03-05 19:15:00,
2013-03-05 14:20:00,42.0,29.5,29.98,SE,142,3.0,5.0,61,0.00,,,0.00,Wunderground v.1.15,2013-03-05 19:20:00,
2013-03-05 14:25:00,42.0,29.9,29.98,SE,136,3.0,5.0,62,0.00,,,0.00,Wunderground v.1.15,2013-03-05 19:25:00,
2013-03-05 14:30:00,42.0,29.9,29.97,SE,128,3.0,3.0,62,0.00,,,0.00,Wunderground v.1.15,2013-03-05 19:30:00,
2013-03-05 14:35:00,42.0,29.9,29.97,ESE,107,3.0,4.0,62,0.00,,,0.00,Wunderground v.1.15,2013-03-05 19:35:00,
2013-03-05 14:40:00,42.2,30.1,29.97,SE,130,3.0,3.0,62,0.00,,,0.00,Wunderground v.1.15,2013-03-05 19:40:00,
2013-03-05 14:50:00,42.7,30.6,29.97,East,99,3.0,3.0,62,0.00,,,0.00,Wunderground v.1.15,2013-03-05 19:50:00,
2013-03-05 14:55:00,42.7,29.8,29.96,East,96,3.0,3.0,60,0.00,,,0.00,Wunderground v.1.15,2013-03-05 19:55:00,
2013-03-05 15:00:00,42.6,29.7,29.96,East,79,3.0,4.0,60,0.00,,,0.00,Wunderground v.1.15,2013-03-05 20:00:00,
2013-03-05 15:05:00,42.1,29.6,29.96,East,79,3.0,4.0,61,0.00,,,0.00,Wunderground v.1.15,2013-03-05 20:05:00,
2013-03-05 15:10:00,41.9,29.8,29.96,ENE,70,3.0,3.0,62,0.00,,,0.00,Wunderground v.1.15,2013-03-05 20:10:00,
2013-03-05 15:20:00,42.3,29.4,29.96,SE,132,2.0,2.0,60,0.00,,,0.00,Wunderground v.1.15,2013-03-05 20:20:00,
2013-03-05 15:25:00,42.5,29.6,29.95,SE,132,3.0,3.0,60,0.00,,,0.00,Wunderground v.1.15,2013-03-05 20:25:00,
2013-03-05 15:30:00,42.7,29.8,29.95,SE,124,3.0,3.0,60,0.00,,,0.00,Wunderground v.1.15,2013-03-05 20:30:00,
2013-03-05 15:35:00,42.8,29.5,29.94,SE,124,3.0,4.0,59,0.00,,,0.00,Wunderground v.1.15,2013-03-05 20:35:00,
2013-03-05 15:40:00,42.8,29.9,29.94,SE,127,3.0,3.0,60,0.00,,,0.00,Wunderground v.1.15,2013-03-05 20:40:00,
2013-03-05 15:45:00,42.9,30.8,29.94,ESE,119,3.0,3.0,62,0.00,,,0.00,Wunderground v.1.15,2013-03-05 20:45:00,
2013-03-05 15:50:00,42.8,29.9,29.95,SE,125,2.0,2.0,60,0.00,,,0.00,Wunderground v.1.15,2013-03-05 20:50:00,
2013-03-05 16:00:00,42.5,29.6,29.95,ESE,123,2.0,2.0,60,0.00,,,0.00,Wunderground v.1.15,2013-03-05 21:00:00,
2013-03-05 16:05:00,42.5,30.0,29.95,SE,125,2.0,2.0,61,0.00,,,0.00,Wunderground v.1.15,2013-03-05 21:05:00,
2013-03-05 16:10:00,42.5,29.2,29.95,SE,140,2.0,4.0,59,0.00,,,0.00,Wunderground v.1.15,2013-03-05 21:10:00,
2013-03-05 16:15:00,42.7,29.8,29.95,SE,140,2.0,4.0,60,0.00,,,0.00,Wunderground v.1.15,2013-03-05 21:15:00,
2013-03-05 16:20:00,42.7,29.8,29.95,SE,140,2.0,3.0,60,0.00,,,0.00,Wunderground v.1.15,2013-03-05 21:20:00,
2013-03-05 16:25:00,42.7,29.8,29.95,SE,140,2.0,3.0,60,0.00,,,0.00,Wunderground v.1.15,2013-03-05 21:25:00,
2013-03-05 16:35:00,42.7,30.2,29.95,SE,140,1.0,2.0,61,0.00,,,0.00,Wunderground v.1.15,2013-03-05 21:35:00,
2013-03-05 16:40:00,42.6,30.1,29.95,SE,140,1.0,2.0,61,0.00,,,0.00,Wunderground v.1.15,2013-03-05 21:40:00,
2013-03-05 16:45:00,42.6,30.5,29.95,SE,140,1.0,2.0,62,0.00,,,0.00,Wunderground v.1.15,2013-03-05 21:45:00,
2013-03-05 16:50:00,42.4,30.3,29.95,SE,140,1.0,1.0,62,0.00,,,0.00,Wunderground v.1.15,2013-03-05 21:50:00,
2013-03-05 16:55:00,42.3,30.6,29.95,SE,140,1.0,1.0,63,0.00,,,0.00,Wunderground v.1.15,2013-03-05 21:55:00,
2013-03-05 17:00:00,42.3,31.0,29.95,SE,140,1.0,1.0,64,0.00,,,0.00,Wunderground v.1.15,2013-03-05 22:00:00,
2013-03-05 17:05:00,42.2,30.5,29.95,SE,140,1.0,1.0,63,0.00,,,0.00,Wunderground v.1.15,2013-03-05 22:05:00,
2013-03-05 17:15:00,41.9,30.6,29.95,SE,140,2.0,2.0,64,0.00,,,0.00,Wunderground v.1.15,2013-03-05 22:15:00,
2013-03-05 17:20:00,41.8,30.5,29.95,SE,140,1.0,1.0,64,0.00,,,0.00,Wunderground v.1.15,2013-03-05 22:20:00,
2013-03-05 17:25:00,41.8,30.9,29.95,SE,140,1.0,1.0,65,0.00,,,0.00,Wunderground v.1.15,2013-03-05 22:25:00,
2013-03-05 17:30:00,41.6,30.7,29.96,SE,140,1.0,1.0,65,0.00,,,0.00,Wunderground v.1.15,2013-03-05 22:30:00,
2013-03-05 17:40:00,41.5,30.6,29.95,SE,140,0.0,0.0,65,0.00,,,0.00,Wunderground v.1.15,2013-03-05 22:40:00,
2013-03-05 17:45:00,41.4,30.9,29.95,SE,140,0.0,0.0,66,0.00,,,0.00,Wunderground v.1.15,2013-03-05 22:45:00,
2013-03-05 17:50:00,41.3,30.4,29.95,SE,140,0.0,0.0,65,0.00,,,0.00,Wunderground v.1.15,2013-03-05 22:50:00,
2013-03-05 17:55:00,41.2,30.7,29.95,SE,140,0.0,2.0,66,0.00,,,0.00,Wunderground v.1.15,2013-03-05 22:55:00,
2013-03-05 18:00:00,41.1,31.0,29.95,SE,140,0.0,0.0,67,0.00,,,0.00,Wunderground v.1.15,2013-03-05 23:00:00,
2013-03-05 18:10:00,40.9,29.7,29.95,SE,140,0.0,0.0,64,0.00,,,0.00,Wunderground v.1.15,2013-03-05 23:10:00,
2013-03-05 18:15:00,40.8,29.2,29.95,SE,140,0.0,0.0,63,0.00,,,0.00,Wunderground v.1.15,2013-03-05 23:15:00,
2013-03-05 18:20:00,40.7,28.7,29.95,SE,140,0.0,0.0,62,0.00,,,0.00,Wunderground v.1.15,2013-03-05 23:20:00,
2013-03-05 18:25:00,40.7,28.7,29.95,SE,140,0.0,1.0,62,0.00,,,0.00,Wunderground v.1.15,2013-03-05 23:25:00,
2013-03-05 18:30:00,40.7,28.7,29.95,SE,140,0.0,2.0,62,0.00,,,0.00,Wunderground v.1.15,2013-03-05 23:30:00,
2013-03-05 18:40:00,40.7,28.3,29.94,SE,140,0.0,0.0,61,0.00,,,0.00,Wunderground v.1.15,2013-03-05 23:40:00,
2013-03-05 18:45:00,40.7,28.3,29.94,SE,140,0.0,0.0,61,0.00,,,0.00,Wunderground v.1.15,2013-03-05 23:45:00,
2013-03-05 18:50:00,40.7,28.3,29.94,SE,140,0.0,0.0,61,0.00,,,0.00,Wunderground v.1.15,2013-03-05 23:50:00,
2013-03-05 18:55:00,40.7,28.7,29.94,SE,140,0.0,2.0,62,0.00,,,0.00,Wunderground v.1.15,2013-03-05 23:55:00,
2013-03-05 19:00:00,40.7,29.5,29.94,SE,140,1.0,2.0,64,0.00,,,0.00,Wunderground v.1.15,2013-03-06 00:00:00,
2013-03-05 19:05:00,40.8,30.3,29.93,SE,140,2.0,3.0,66,0.00,,,0.00,Wunderground v.1.15,2013-03-06 00:05:00,
2013-03-05 19:10:00,40.8,30.7,29.94,SE,140,2.0,2.0,67,0.00,,,0.00,Wunderground v.1.15,2013-03-06 00:10:00,
2013-03-05 19:20:00,40.8,31.4,29.93,SE,140,1.0,1.0,69,0.00,,,0.00,Wunderground v.1.15,2013-03-06 00:20:00,
2013-03-05 19:25:00,40.8,31.8,29.93,SE,144,1.0,4.0,70,0.00,,,0.00,Wunderground v.1.15,2013-03-06 00:25:00,
2013-03-05 19:30:00,40.7,31.0,29.93,SSW,203,2.0,2.0,68,0.00,,,0.00,Wunderground v.1.15,2013-03-06 00:30:00,
2013-03-05 19:35:00,40.6,30.9,29.93,SSW,203,2.0,2.0,68,0.00,,,0.00,Wunderground v.1.15,2013-03-06 00:35:00,
2013-03-05 19:40:00,40.7,31.7,29.93,SE,146,2.0,2.0,70,0.00,,,0.00,Wunderground v.1.15,2013-03-06 00:40:00,
2013-03-05 19:45:00,40.7,32.4,29.93,SE,146,2.0,2.0,72,0.00,,,0.00,Wunderground v.1.15,2013-03-06 00:45:00,
2013-03-05 19:55:00,40.7,33.4,29.92,SE,146,1.0,2.0,75,0.00,,,0.00,Wunderground v.1.15,2013-03-06 00:55:00,
2013-03-05 20:00:00,40.7,33.4,29.92,SE,146,1.0,2.0,75,0.00,,,0.00,Wunderground v.1.15,2013-03-06 01:00:00,
2013-03-05 20:05:00,40.7,34.0,29.92,SE,146,1.0,2.0,77,0.00,,,0.00,Wunderground v.1.15,2013-03-06 01:05:00,
2013-03-05 20:10:00,40.6,34.3,29.92,SE,141,3.0,5.0,78,0.00,,,0.00,Wunderground v.1.15,2013-03-06 01:10:00,
2013-03-05 20:15:00,40.4,33.4,29.92,SE,145,3.0,5.0,76,0.00,,,0.00,Wunderground v.1.15,2013-03-06 01:15:00,
2013-03-05 20:20:00,40.4,33.8,29.92,SE,145,3.0,4.0,77,0.00,,,0.00,Wunderground v.1.15,2013-03-06 01:20:00,
2013-03-05 20:25:00,40.4,33.8,29.92,SE,138,3.0,4.0,77,0.00,,,0.00,Wunderground v.1.15,2013-03-06 01:25:00,
2013-03-05 20:35:00,40.4,34.4,29.92,SE,142,4.0,4.0,79,0.00,,,0.00,Wunderground v.1.15,2013-03-06 01:35:00,
2013-03-05 20:40:00,40.4,34.7,29.92,SE,142,3.0,4.0,80,0.00,,,0.00,Wunderground v.1.15,2013-03-06 01:40:00,
2013-03-05 20:45:00,40.3,34.6,29.92,SE,142,2.0,4.0,80,0.00,,,0.00,Wunderground v.1.15,2013-03-06 01:45:00,
2013-03-05 20:50:00,40.3,34.6,29.92,ESE,115,2.0,2.0,80,0.00,,,0.00,Wunderground v.1.15,2013-03-06 01:50:00,
2013-03-05 20:55:00,40.2,34.5,29.91,ESE,123,3.0,3.0,80,0.00,,,0.00,Wunderground v.1.15,2013-03-06 01:55:00,
2013-03-05 21:05:00,40.2,34.5,29.91,ESE,109,3.0,4.0,80,0.00,,,0.00,Wunderground v.1.15,2013-03-06 02:05:00,
2013-03-05 21:10:00,40.3,34.6,29.91,SE,140,3.0,6.0,80,0.00,,,0.00,Wunderground v.1.15,2013-03-06 02:10:00,
2013-03-05 21:15:00,40.4,34.7,29.90,SE,132,5.0,6.0,80,0.00,,,0.00,Wunderground v.1.15,2013-03-06 02:15:00,
2013-03-05 21:20:00,40.5,34.8,29.91,ESE,115,5.0,5.0,80,0.00,,,0.00,Wunderground v.1.15,2013-03-06 02:20:00,
2013-03-05 21:25:00,40.3,34.6,29.90,SE,131,4.0,5.0,80,0.00,,,0.00,Wunderground v.1.15,2013-03-06 02:25:00,
2013-03-05 21:30:00,40.0,34.3,29.90,SE,130,4.0,4.0,80,0.00,,,0.00,Wunderground v.1.15,2013-03-06 02:30:00,
2013-03-05 21:35:00,39.9,33.9,29.90,East,91,5.0,5.0,79,0.00,,,0.00,Wunderground v.1.15,2013-03-06 02:35:00,
2013-03-05 21:45:00,39.6,33.6,29.90,SSE,149,5.0,5.0,79,0.00,,,0.00,Wunderground v.1.15,2013-03-06 02:45:00,
2013-03-05 21:50:00,39.5,33.5,29.89,East,93,5.0,5.0,79,0.00,,,0.00,Wunderground v.1.15,2013-03-06 02:50:00,
2013-03-05 21:55:00,39.3,33.3,29.89,ESE,111,5.0,5.0,79,0.00,,,0.00,Wunderground v.1.15,2013-03-06 02:55:00,
2013-03-05 22:00:00,39.2,33.5,29.88,SSE,151,5.0,5.0,80,0.00,,,0.00,Wunderground v.1.15,2013-03-06 03:00:00,
2013-03-05 22:05:00,39.0,33.0,29.88,SE,126,5.0,6.0,79,0.00,,,0.00,Wunderground v.1.15,2013-03-06 03:05:00,
2013-03-05 22:10:00,38.9,32.9,29.88,SE,124,5.0,5.0,79,0.00,,,0.00,Wunderground v.1.15,2013-03-06 03:10:00,
2013-03-05 22:20:00,38.8,33.2,29.87,ESE,116,4.0,6.0,80,0.00,,,0.00,Wunderground v.1.15,2013-03-06 03:20:00,
2013-03-05 22:25:00,38.7,33.1,29.87,SE,145,4.0,6.0,80,0.00,,,0.00,Wunderground v.1.15,2013-03-06 03:25:00,
2013-03-05 22:35:00,38.6,32.6,29.86,SE,128,4.0,5.0,79,0.00,,,0.00,Wunderground v.1.15,2013-03-06 03:35:00,
2013-03-05 22:40:00,38.5,32.9,29.86,SE,125,4.0,4.0,80,0.00,,,0.00,Wunderground v.1.15,2013-03-06 03:40:00,
2013-03-05 22:45:00,38.5,32.9,29.86,ESE,117,4.0,5.0,80,0.00,,,0.00,Wunderground v.1.15,2013-03-06 03:45:00,
2013-03-05 22:50:00,38.6,33.0,29.86,SSE,150,4.0,4.0,80,0.00,,,0.00,Wunderground v.1.15,2013-03-06 03:50:00,
2013-03-05 23:00:00,38.7,33.1,29.85,ESE,120,3.0,4.0,80,0.00,,,0.00,Wunderground v.1.15,2013-03-06 04:00:00,
2013-03-05 23:05:00,38.6,32.6,29.85,SE,144,3.0,4.0,79,0.00,,,0.00,Wunderground v.1.15,2013-03-06 04:05:00,
2013-03-05 23:10:00,38.6,32.6,29.85,ENE,58,3.0,4.0,79,0.00,,,0.00,Wunderground v.1.15,2013-03-06 04:10:00,
2013-03-05 23:15:00,38.6,32.6,29.84,SSE,154,3.0,4.0,79,0.00,,,0.00,Wunderground v.1.15,2013-03-06 04:15:00,
2013-03-05 23:20:00,38.6,32.3,29.84,East,80,2.0,3.0,78,0.00,,,0.00,Wunderground v.1.15,2013-03-06 04:20:00,
2013-03-05 23:30:00,38.6,32.0,29.83,East,80,4.0,4.0,77,0.00,,,0.00,Wunderground v.1.15,2013-03-06 04:30:00,
2013-03-05 23:35:00,38.7,32.1,29.83,ENE,68,4.0,8.0,77,0.00,,,0.00,Wunderground v.1.15,2013-03-06 04:35:00,
2013-03-05 23:40:00,38.8,32.2,29.83,ENE,69,5.0,8.0,77,0.00,,,0.00,Wunderground v.1.15,2013-03-06 04:40:00,
2013-03-05 23:45:00,38.9,31.6,29.83,ENE,63,6.0,8.0,75,0.00,,,0.00,Wunderground v.1.15,2013-03-06 04:45:00,
2013-03-05 23:50:00,39.0,31.4,29.82,East,101,7.0,7.0,74,0.00,,,0.00,Wunderground v.1.15,2013-03-06 04:50:00,
2013-03-05 23:55:00,39.1,31.8,29.82,NE,53,7.0,7.0,75,0.00,,,0.00,Wunderground v.1.15,2013-03-06 04:55:00,